This demonstration page uses our WeatherBlox Daily Observations layout. Learn more.

Left ArrowRight Arrow

Hourly Observations for January 9, 2022

Temp ( °F °C ) Dew Point ( °F °C ) Humidity (%) Winds ( mph kmh ) Pressure ( in mb ) Visibility ( mi km ) Precip ( " mm )
12:53 am 00:53 Cloudy 44 6.7 32 0 63 63 E 6 9 30.46 1032 10 16 0.00 0.00
1:53 am 01:53 Cloudy 44 6.7 33 0.6 65 65 E 6 9 30.45 1031 10 16 0.00 0.00
2:53 am 02:53 Cloudy 44 6.7 34 1.1 68 68 ESE 9 15 30.42 1030 10 16 0.00 0.00
3:53 am 03:53 Cloudy 44 6.7 34 1.1 68 68 VRB 5 7 30.40 1030 10 16 0.00 0.00
4:53 am 04:53 Cloudy 44 6.7 35 1.7 71 71 E 5 7 30.40 1030 10 16 0.00 0.00
5:25 am 05:25 Cloudy 44 6.7 35 1.7 71 71 E 7 11 30.41 1030 10 16 0.00 0.00
5:53 am 05:53 Cloudy 44 6.7 35 1.7 71 71 ESE 5 7 30.38 1029 10 16 0.00 0.00
6:21 am 06:21 Cloudy 44 6.7 35 1.7 71 71 E 5 7 30.41 1030 10 16 0.00 0.00
6:36 am 06:36 Cloudy 44 6.7 35 1.7 71 71 E 7 11 30.39 1029 10 16 0.00 0.00
6:53 am 06:53 Cloudy 44 6.7 36 2.2 73 73 E 3 6 30.38 1029 10 16 0.00 0.00
7:53 am 07:53 Cloudy 44 6.7 36 2.2 73 73 VRB 5 7 30.38 1029 10 16 0.00 0.00
8:53 am 08:53 Cloudy 44 6.7 37 2.8 76 76 ESE 3 6 30.37 1028 10 16 0.00 0.00
9:53 am 09:53 Cloudy 45 7.2 37 2.8 74 74 E 7 11 30.36 1028 10 16 0.00 0.00
10:53 am 10:53 Cloudy 47 8.3 39 3.9 74 74 ESE 3 6 30.35 1028 10 16 0.00 0.00
11:53 am 11:53 Cloudy 49 9.4 40 4.4 71 71 SSE 6 9 30.31 1026 10 16 0.00 0.00
12:15 pm 12:15 Cloudy with Rain 49 9.4 42 5.6 77 77 VRB 3 6 30.31 1027 6 10 0.01 0.25
12:53 pm 12:53 Mostly Cloudy 52 11.1 45 7.2 77 77 SE 7 11 30.25 1024 10 16 0.01 0.25
1:19 pm 13:19 Mostly Cloudy 55 12.8 46 7.8 72 72 VRB 6 9 30.23 1024 10 16 0.00 0.00
1:53 pm 13:53 Cloudy 59 15 48 8.9 67 67 SSW 8 13 30.19 1022 10 16 0.00 0.00
2:53 pm 14:53 Cloudy 62 16.7 52 11.1 70 70 S 9 15 30.16 1022 10 16 0.00 0.00
3:53 pm 15:53 Cloudy with Light Rain 62 16.7 54 12.2 75 75 SSW 3 6 30.14 1021 4 6 0.03 0.76
4:26 pm 16:26 Cloudy with Heavy Rain 60 15.6 55 12.8 84 84 WNW 15 24 30.19 1022 2 2 0.14 3.56
4:36 pm 16:36 Cloudy with Heavy Rain 59 15 56 13.3 90 90 NW 8 13 30.18 1022 2 3 0.25 6.35
4:46 pm 16:46 Cloudy with Rain 58 14.4 57 13.9 97 97 Calm 30.19 1022 3 5 0.33 8.38
4:53 pm 16:53 Cloudy with Light Rain 58 14.4 57 13.9 97 97 Calm 30.19 1022 4 6 0.34 8.64
5:53 pm 17:53 Cloudy with Light Rain 58 14.4 56 13.3 93 93 Calm 30.16 1021 10 16 0.09 2.29
6:53 pm 18:53 Cloudy 57 13.9 56 13.3 96 96 Calm 30.16 1021 10 16 0.00 0.00
7:42 pm 19:42 Cloudy with Light Rain 57 13.9 56 13.3 96 96 SW 3 6 30.19 1022 6 10 0.01 0.25
7:53 pm 19:53 Cloudy with Mist and Fog 57 13.9 56 13.3 96 96 Calm 30.18 1022 5 8 0.01 0.25
8:04 pm 20:04 Cloudy 57 13.9 56 13.3 96 96 Calm 30.18 1022 8 13 0.00 0.00
8:53 pm 20:53 Cloudy with Light Rain 58 14.4 56 13.3 93 93 WNW 13 20 30.19 1022 5 8 0.01 0.25
9:00 pm 21:00 Cloudy with Light Rain 57 13.9 56 13.3 96 96 NNW 9 15 30.19 1022 5 8 0.00 0.00
9:28 pm 21:28 Cloudy 56 13.3 54 12.2 93 93 NNW 9 15 30.20 1023 10 16 0.00 0.00
9:53 pm 21:53 Cloudy 55 12.8 52 11.1 90 90 NNW 6 9 30.21 1023 10 16 0.00 0.00
10:22 pm 22:22 Cloudy 53 11.7 51 10.6 93 93 NNW 9 15 30.22 1024 10 16 0.00 0.00
10:53 pm 22:53 Cloudy 52 11.1 49 9.4 89 89 NW 9 15 30.23 1024 10 16 0.00 0.00
11:16 pm 23:16 Cloudy 51 10.6 48 8.9 89 89 NNW 13 20 30.24 1024 10 16 0.00 0.00
11:53 pm 23:53 Cloudy 49 9.4 46 7.8 90 90 NW 15 24 30.23 1024 10 16 0.00 0.00

Powered by AerisWeather